CZ-2D DEB, 38179

Orbit data source: Space-Track

CZ-2D DEB, 38179 is space debris in SSO originally from a launch on Sun, 20 Nov 2011 UTC launched from the Jiuquan Satellite Launch Center, China (JSC). Debris objects in space refer to the collection of defunct objects orbiting the Earth. Examples of debris include non-operational satellites, rocket bodies, and fragments generated from explosions, collisions, or faulty payload assembly.

Loading next visibility...
Identifier
38179, 2011-068G
Orbit
SSO
Country
Flag of CNCN / PRC
Related business
Manufacturer
Unknown
Mission
Spacecraft
Bus & Motor
Unknown
Mass
Unknown
Launch date (UTC)
2011-11-20 (14 years ago)
Launch vehicle
Unknown
Launch site
Jiuquan Satellite Launch Center, China (JSC)
Object type
Payload
Rocket body
Debris
Shape & HBR
Unknown shape, 0.1 m
Radar Cross Section
Small (<0.1 m²)

Expand to show TLE details & history
Last TLE update: 2 days ago

TLE from 2 days ago
0 CZ-2D DEB
1 38179U 11068G   26093.30989093  .00001502  00000-0  63250-3 0  9992
2 38179  98.8368 116.5385 0126474 311.4593  65.3130 14.23049523742342
Epoch: 2026-04-03T07:26Z
TLE epoch observation values (Epoch: 2026-04-03T07:26:14.576Z)
Latitude
17.86773°
Longitude
170.47451°
Altitude
780.358 km
Speed
7.484 km/s
True Right ascension
07h 34m 43s
True Declination
17° 46' 04"
Sunlit
Object was in daylight at epoch
Visualization orbit readout
Latitude
Unknown
Longitude
Unknown
Altitude
Unknown
Speed
Unknown
Apparent Right ascension
Unknown
Apparent Declination
Unknown
Sunlit
N/A
Visualization observer readout
Local Sidereal Time
21:59:48
Azimuth
Unknown
Elevation
Unknown
Doppler factor
Unknown
Orbital elements
Apogee altitude
903.157 km
Perigee altitude
721.279 km
Semi-major axis
7,190.355 km
Eccentricity
0.01265
Inclination
98.8368°
RAAN
116.5385°
Arg. of periapsis
311.4593°
True anomaly
66.63846°
Mean anomaly
65.313°
Eccentric anomaly
65.97486°
Mean motion
3.55974 °/min
Orbital period
101.13 mins
BSTAR
0.0006325
Loading maneuver chart data...
Computing Atmospheric mass density...
Loading historical data...
Loading historical data...
Loading historical data...
Loading historical data...
Loading historical data...
Loading historical data...
Loading historical data...

Documentation

Showing up to 5 results
|